QZS-3 (42917 NORAD) Tracking and Keplerian Element Data

This shows tracking and keplerian element data for the satellite.

Feedback or suggestion? Click here.




ElementValue
Catalog42917
NameQZS-3
Epoch Orbit326
Epoch Day198.8260767
Epoch Year2018
RAAN142.4124
Inclination0.0652
Eccentricity0.0002092
Argument of Perigee346.2672
Mean Anonmoly231.3208
Mean Motion1.00270575
Decay Rate-3.68E-06
L11 42917U 17048A 18198.82607670 -.00000368 00000-0 00000-0 0 9994
L22 42917 0.0652 142.4124 0002092 346.2672 231.3208 1.00270575 3266

Live tracking and technical data element details for QZS-3 (NORAD 42917). QZS-3 can be tracked NOW for your location showing map with azimuth and elevation plus other details from your city location.

Track the satellite on the map from your city or location and see movement details for azimuth, elevation, latitude, longitude, range, height, and movement on the map or in text.







IsCatalogInMostPopularTable: catalog: 42917, numindb: 94
Update: records affected: 1



GetName: 42917 QZS-3

Hit Count: updated at: Fri, 20 Jul 2018 20:36:50 GMT